Regional Weather Roundup
Issued by NWS

Home | Current Version | Previous Version | Graphics & Text | Print | Product List | Glossary On
Versions: 1 2 3 4 5 6 7 8 9 10 11 12 13 14 15 16 17 18 19 20 21 22 23 24 25 26 27 28 29 30 31 32 33 34 35 36 37 38 39 40 41 42 43 44 45 46 47 48 49 50
000
ASUS45 KABQ 241501
RWRNM
WEATHER ROUNDUP FOR NEW MEXICO
NATIONAL WEATHER SERVICE ALBUQUERQUE NM
800 AM MST MON NOV 24 2014

NOTE: "FAIR" MEANS FEW OR NO CLOUDS BELOW 12,000 FEET AGL WITH NO
       SIGNIFICANT WEATHER OR OBSTRUCTIONS TO VISION.

      THIS PRODUCT IS RELEASED AS TWO VERSIONS.  ONE VERSION NEAR
      THE TOP OF THE HOUR CONTAINING PRELIMINARY DATA FROM ALBUQUERQUE
      AND OTHER STATIONS.  A FINAL VERSION WITH ADDITIONAL DATA IS
      ISSUED ABOUT 10 MINUTES AFTER THE HOUR.

NMZ501-503-504-510>518-241600-
NORTHWEST PLATEAU/NORTHCENTRAL MOUNTAINS

CITY           SKY/WX    TMP DP  RH WIND       PRES   REMARKS
FARMINGTON     CLEAR     25  10  53 N3        30.17R
SANTA FE       SUNNY     21   8  57 W3        30.10S
TAOS           CLOUDY     7   1  78 CALM      30.08S

$$
NMZ402-403-502-505>509-241600-
WESTCENTRAL MOUNTAINS/SOUTHWEST MOUNTAINS

CITY           SKY/WX    TMP DP  RH WIND       PRES   REMARKS
GALLUP         PTCLDY    15   1  53 CALM      30.19R
SILVER CITY    SUNNY     32  -4  21 NW10      30.19R WCI  24

$$
NMZ407-409-411-412-241600-
SOUTHERN DESERTS

CITY           SKY/WX    TMP DP  RH WIND       PRES   REMARKS
DEMING         MOSUNNY   25   2  37 CALM      30.18R
HOLLOMAN AFB   PTSUNNY   37   8  29 NE7       30.17R WCI  32
T OR C         MOSUNNY   36  -3  19 NW15      30.17R WCI  27

$$
NMZ519>523-241600-
CENTRAL VALLEYS/CENTRAL HIGHLANDS

CITY           SKY/WX    TMP DP  RH WIND       PRES   REMARKS
ALBUQUERQUE    MOSUNNY   31   8  38 N6        30.17R WCI  25
DOUBLE EAGLE   MOSUNNY   25   7  46 CALM      30.16R
CLINES CORNERS SUNNY     22   7  52 NW22      30.02R WCI   6
BELEN          FAIR      28  12  50 CALM      30.18S
SOCORRO        NOT AVBL

$$
NMZ524>526-539-540-241600-
SOUTHCENTRAL MOUNTAINS

CITY           SKY/WX    TMP DP  RH WIND       PRES   REMARKS
RUIDOSO        SUNNY     28   1  31 NW9       30.13R WCI  20

$$
NMZ527>531-241600-
NORTHEAST HIGHLANDS/NORTHEAST PLAINS

CITY           SKY/WX    TMP DP  RH WIND       PRES   REMARKS
LAS VEGAS      MOSUNNY   26   5  40 CALM      30.00S
RATON          PTSUNNY   16  11  80 NE6       29.99R WCI   7
CLAYTON        MOSUNNY   34  11  38 W9        29.99R WCI  27

$$
NMZ532>537-241600-
EASTCENTRAL PLAINS

CITY           SKY/WX    TMP DP  RH WIND       PRES   REMARKS
TUCUMCARI        N/A     30  23  75 W8        30.03R WCI  22
CANNON AFB     SUNNY     31  20  63 NW9       30.05R WCI  23
CLOVIS AIRPORT SUNNY     30  27  86 W10       30.05R WCI  21

$$
NMZ028-029-538-241600-
SOUTHEAST PLAINS

CITY           SKY/WX    TMP DP  RH WIND       PRES   REMARKS
ROSWELL        SUNNY     36  14  40 SE5       30.11R WCI  32
CARLSBAD       SUNNY     43   9  24 NW6       30.11R
HOBBS          SUNNY     37  18  44 W16       30.10R WCI  28


$$


USA.gov is the U.S. government's official web portal to all federal, state and local government web resources and services.